EW9248 Weather Reports


Display with metric or nautical units.
time (UTC)temp
F
wind
direction
speed
MPH
gust
MPH
rain 1hr
in
rain 24hr
in
rain mn
in
humidity
%
barometer
mb
20260901171316 75 0.0 0.0 0.00 1.60 1.37 94 1015.5
20260901170316 74 0.0 0.0 0.00 1.62 1.37 94 1015.5
20260901165336 73 0.0 0.0 0.00 1.62 1.37 94 1015.6
20260901164336 73 0.0 0.0 0.00 1.63 1.37 94 1015.7
20260901163356 73 0.0 0.0 0.00 1.65 1.37 94 1015.6
20260901162416 73 0.0 0.0 0.00 1.67 1.37 94 1015.6
20260901161335 73 0.0 0.0 0.00 1.68 1.37 94 1015.7
20260901160336 73 0.0 0.0 0.00 1.71 1.37 94 1015.7
20260901155315 72 0.0 0.0 0.00 1.76 1.37 94 1015.7
20260901154315 72 0.0 0.0 0.00 1.85 1.37 94 1015.8
20260901153416 72 0.0 0.0 0.00 1.85 1.37 94 1015.8
20260901152336 72 0.0 0.0 0.00 1.85 1.37 94 1015.7
20260901151316 72 0.0 0.0 0.00 1.85 1.37 94 1015.8
20260901150335 72 0.0 0.0 0.00 1.85 1.37 94 1015.7
20260901145335 71 0.0 0.0 0.00 1.85 1.37 94 1015.7
20260901144356 71 0.0 0.0 0.16 1.85 1.37 94 1015.7
20260901143315 70 0.0 0.0 0.29 1.85 1.37 94 1015.7
20260901142315 70 0.0 0.0 0.29 1.85 1.37 94 1015.7
20260901141315 70 0.0 1.0 0.29 1.85 1.37 94 1015.7
20260901140336 70 0.0 0.0 0.29 1.85 1.37 94 1015.7
20260901135335 69 0.0 0.0 0.29 1.85 1.37 94 1015.9
20260901134316 69 0.0 0.0 0.16 1.69 1.21 94 1016.2
20260901133315 69 0.0 0.0 0.13 1.56 1.08 94 1015.9
20260901132335 69 0.0 0.0 0.16 1.56 1.08 94 1016.1
20260901131316 69 0.0 0.0 0.34 1.56 1.08 94 1016.0
20260901130315 68 0.0 1.0 0.50 1.56 1.08 94 1016.1
20260901125315 68 0.0 0.0 0.62 1.56 1.08 94 1016.0
20260901124335 68 202 1.0 3.0 0.69 1.53 1.05 94 1016.3
20260901123315 68 0.0 0.0 0.78 1.42 0.94 94 1016.5
20260901122356 67 0.0 0.0 0.83 1.40 0.92 94 1016.3
20260901121315 67 0.0 0.0 0.66 1.22 0.74 94 1016.8
20260901120315 67 0.0 0.0 0.50 1.06 0.57 94 1016.9
20260901115316 67 0.0 1.0 0.39 0.94 0.46 94 1016.2
20260901114335 67 0.0 0.0 0.29 0.84 0.36 94 1016.2
20260901113336 66 0.0 1.0 0.09 0.64 0.17 94 1016.2
20260901112315 66 0.0 0.0 0.02 0.57 0.09 94 1016.6
20260901111315 66 0.0 0.0 0.02 0.56 0.08 94 1016.0
20260901110355 66 0.0 0.0 0.02 0.56 0.08 94 1015.9
20260901105315 66 0.0 0.0 0.01 0.55 0.07 94 1015.8
20260901104436 66 0.0 0.0 0.01 0.55 0.07 94 1015.5
20260901103315 66 0.0 0.0 0.01 0.55 0.07 94 1015.6
20260901102315 66 0.0 0.0 0.01 0.55 0.07 94 1015.8
20260901101356 66 0.0 0.0 0.00 0.54 0.06 94 1016.0
20260901100335 66 0.0 0.0 0.00 0.54 0.06 94 1015.8
20260901095315 66 0.0 0.0 0.00 0.54 0.06 94 1015.8
20260901094336 66 0.0 0.0 0.00 0.54 0.06 94 1015.9
20260901093335 66 0.0 0.0 0.00 0.54 0.06 94 1016.0
20260901092336 66 0.0 0.0 0.00 0.54 0.06 94 1015.8
20260901091335 65 0.0 0.0 0.00 0.54 0.06 94 1015.9
20260901090316 65 0.0 0.0 0.00 0.54 0.06 94 1016.1
20260901085315 65 0.0 0.0 0.00 0.54 0.06 94 1015.9
20260901084315 66 0.0 0.0 0.01 0.54 0.06 93 1016.5
20260901083335 66 0.0 0.0 0.03 0.54 0.06 93 1016.8
20260901082315 66 0.0 0.0 0.06 0.54 0.06 93 1016.7
20260901081356 66 0.0 0.0 0.06 0.54 0.06 93 1016.8
20260901080335 66 0.0 0.0 0.06 0.54 0.06 94 1017.0
20260901075315 66 0.0 0.0 0.06 0.54 0.06 93 1017.0
20260901074336 66 0.0 0.0 0.05 0.53 0.05 93 1017.1
20260901073315 66 0.0 1.0 0.03 0.51 0.03 93 1017.1
20260901072335 65 0.0 0.0 0.00 0.48 0.00 93 1016.9
20260901071335 65 0.0 0.0 0.00 0.48 0.00 93 1017.0
20260901070336 65 0.0 0.0 0.00 0.48 0.00 93 1017.1
20260901064335 65 0.0 0.0 0.00 0.48 0.00 93 1017.2
20260901063356 65 0.0 0.0 0.00 0.48 0.00 93 1017.1
20260901062317 65 0.0 0.0 0.00 0.48 0.00 93 1017.1
20260901061417 65 0.0 0.0 0.00 0.48 0.00 93 1017.2
20260901060337 65 0.0 0.0 0.00 0.48 0.00 93 1017.3
20260901055337 65 0.0 0.0 0.00 0.48 0.00 93 1017.4
20260901054317 65 0.0 0.0 0.00 0.48 0.00 93 1017.5
20260901053317 65 0.0 0.0 0.00 0.48 0.00 93 1017.6
20260901052317 65 0.0 0.0 0.00 0.48 0.00 93 1017.6
20260901051437 65 0.0 0.0 0.00 0.48 0.00 93 1017.7
20260901050317 65 0.0 0.0 0.00 0.48 0.00 93 1017.6
20260901045317 66 0.0 0.0 0.00 0.48 0.00 93 1017.6
20260901044416 66 0.0 0.0 0.00 0.48 0.00 93 1017.8
20260901043316 66 0.0 0.0 0.00 0.48 0.00 93 1017.7
20260901042337 66 0.0 0.0 0.00 0.48 0.00 93 1017.8
20260901040433 66 0.0 0.0 0.00 0.48 0.00 93 1017.8
20260901040116 66 0.0 0.0 0.00 0.48 0.00 93 1017.8
20260901035115 66 0.0 0.0 0.00 0.48 0.48 93 1017.9
20260901034117 66 0.0 0.0 0.00 0.48 0.48 93 1017.7
20260901033117 66 0.0 0.0 0.00 0.48 0.48 93 1017.9
20260901032137 67 0.0 0.0 0.00 0.48 0.48 93 1018.0
20260901031118 67 0.0 0.0 0.00 0.48 0.48 93 1018.0
20260901030137 67 0.0 0.0 0.00 0.48 0.48 93 1018.1
20260901025116 67 0.0 0.0 0.00 0.48 0.48 93 1017.9
20260901024157 67 0.0 0.0 0.00 0.48 0.48 93 1018.0
20260901023117 67 0.0 0.0 0.00 0.48 0.48 93 1018.1
20260901022237 68 0.0 0.0 0.00 0.48 0.48 93 1018.2
20260901021137 68 0.0 0.0 0.00 0.48 0.48 93 1018.3
20260901020117 68 0.0 0.0 0.00 0.48 0.48 93 1018.3
20260901015157 68 0.0 0.0 0.01 0.48 0.48 93 1018.3
20260901014136 68 0.0 0.0 0.01 0.48 0.48 93 1018.4
20260901013117 68 0.0 0.0 0.01 0.48 0.48 93 1018.4
20260901012202 68 0.0 0.0 0.02 0.48 0.48 93 1018.5
20260901011917 68 0.0 0.0 0.03 0.48 0.48 93 1018.5
20260901010816 68 0.0 0.0 0.03 0.48 0.48 93 1018.2
20260901005857 68 0.0 0.0 0.03 0.48 0.48 93 1018.1
20260901004816 68 0.0 0.0 0.02 0.47 0.47 93 1018.0
20260901003901 68 0.0 0.0 0.02 0.47 0.47 93 1018.1
20260901002816 68 0.0 0.0 0.02 0.47 0.47 93 1018.0
20260901001836 68 0.0 0.0 0.00 0.45 0.45 93 1017.8
20260901000837 68 0.0 0.0 0.00 0.45 0.45 93 1017.8
20260831235836 68 0.0 0.0 0.00 0.45 0.45 93 1017.8
20260831234837 68 0.0 0.0 0.00 0.45 0.45 93 1017.8
20260831233816 68 0.0 0.0 0.00 0.45 0.45 93 1017.9
20260831232816 68 0.0 0.0 0.01 0.45 0.45 93 1017.9
20260831231857 68 0.0 1.0 0.01 0.45 0.45 93 1018.0
20260831230817 68 0.0 0.0 0.02 0.45 0.45 93 1018.0
20260831225836 68 0.0 0.0 0.03 0.45 0.45 93 1018.0
20260831224816 68 0.0 0.0 0.04 0.45 0.45 93 1018.2
20260831223836 69 0.0 0.0 0.04 0.45 0.45 92 1018.3
20260831222837 68 0.0 0.0 0.04 0.44 0.44 92 1018.5
20260831221816 69 0.0 0.0 0.04 0.44 0.44 92 1018.6
20260831220816 69 0.0 0.0 0.03 0.43 0.43 92 1018.8
20260831215836 69 0.0 0.0 0.02 0.42 0.42 92 1018.9
20260831214817 69 0.0 0.0 0.02 0.41 0.41 92 1018.9
20260831213842 69 0.0 0.0 0.02 0.41 0.41 92 1018.9
20260831212836 68 0.0 0.0 0.01 0.40 0.40 92 1018.9
20260831211816 69 0.0 0.0 0.01 0.40 0.40 92 1019.0
20260831210836 68 0.0 0.0 0.02 0.40 0.40 92 1019.0
20260831205857 69 0.0 0.0 0.03 0.40 0.40 92 1019.1
20260831204816 69 0.0 0.0 0.02 0.39 0.39 92 1018.9
20260831203816 68 0.0 0.0 0.04 0.39 0.39 92 1018.9
20260831202859 69 0.0 0.0 0.06 0.39 0.39 92 1019.0
20260831201856 69 0.0 0.0 0.08 0.39 0.39 92 1019.1
20260831200837 68 0.0 0.0 0.08 0.38 0.38 92 1019.1
20260831195836 68 0.0 0.0 0.07 0.37 0.37 92 1019.2
20260831194816 68 0.0 0.0 0.07 0.37 0.37 92 1019.2
20260831193816 68 0.0 0.0 0.05 0.35 0.35 91 1019.2
20260831192837 68 0.0 0.0 0.04 0.33 0.33 91 1019.1
20260831191856 68 0.0 0.0 0.02 0.31 0.31 91 1019.2
20260831190836 68 0.0 0.0 0.02 0.30 0.30 91 1019.5
20260831185817 68 0.0 0.0 0.03 0.30 0.30 91 1019.7
20260831184818 67 0.0 0.0 0.03 0.30 0.30 91 1019.7
20260831183836 67 0.0 0.0 0.04 0.30 0.30 91 1019.8
20260831182816 67 0.0 0.0 0.04 0.29 0.28 91 1020.0
20260831181837 67 0.0 0.0 0.04 0.29 0.28 91 1020.0
20260831180836 67 0.0 0.0 0.04 0.28 0.28 91 1020.2
20260831175837 67 0.0 0.0 0.04 0.27 0.27 91 1020.3
20260831174816 67 0.0 0.0 0.05 0.27 0.27 91 1020.4
20260831173816 67 0.0 0.0 0.05 0.26 0.26 91 1020.5
20260831172816 67 0.0 1.0 0.06 0.25 0.25 91 1020.6